VA5EVR-13 Weather Reports


time (UTC)temp
F
wind
direction
speed
knots
gust
knots
rain 1hr
in
rain 24hr
in
rain mn
in
humidity
%
barometer
mb
20260506222012 51 68 7.0 7.0 0.00 0.00 0.00 26 88.8
20260506221011 51 45 1.7 1.7 0.00 0.00 0.00 26 88.8
20260506220012 51 22 4.3 4.3 0.00 0.00 0.00 27 88.8
20260506215011 51 90 1.7 1.7 0.00 0.00 0.00 27 88.8
20260506214012 51 45 5.2 5.2 0.00 0.00 0.00 27 88.8
20260506213012 51 292 4.3 4.3 0.00 0.00 0.00 25 88.8
20260506212012 51 270 0.9 0.9 0.00 0.00 0.00 25 88.8
20260506211012 51 270 2.6 2.6 0.00 0.00 0.00 27 88.8
20260506210012 51 292 4.3 4.3 0.00 0.00 0.00 28 88.8
20260506205012 51 315 7.0 7.0 0.00 0.00 0.00 27 88.8
20260506204011 51 0 0.9 0.9 0.00 0.00 0.00 26 88.8
20260506203012 51 158 7.0 7.0 0.00 0.00 0.00 27 88.8
20260506202012 50 202 4.3 4.3 0.00 0.00 0.00 27 88.8
20260506201012 50 248 2.6 2.6 0.00 0.00 0.00 26 88.8
20260506200011 49 112 0.0 0.0 0.00 0.00 0.00 28 88.8
20260506195012 49 225 3.5 3.5 0.00 0.00 0.00 28 88.8
20260506194011 49 112 6.1 6.1 0.00 0.00 0.00 28 88.8
20260506192011 49 270 10.4 10.4 0.00 0.00 0.00 30 88.8
20260506191012 48 202 0.9 0.9 0.00 0.00 0.00 30 88.8
20260506190011 48 270 3.5 3.5 0.00 0.00 0.00 32 88.8
20260506185012 47 68 4.3 4.3 0.00 0.00 0.00 30 88.8
20260506184011 47 90 3.5 3.5 0.00 0.00 0.00 30 88.8
20260506183011 47 338 2.6 2.6 0.00 0.00 0.00 30 88.8
20260506182012 47 22 8.7 8.7 0.00 0.00 0.00 32 88.8
20260506181011 47 45 4.3 4.3 0.00 0.00 0.00 32 88.8
20260506180012 47 0 8.7 8.7 0.00 0.00 0.00 32 88.8
20260506175012 46 270 7.8 7.8 0.00 0.00 0.00 31 88.8
20260506174012 46 0 7.8 7.8 0.00 0.00 0.00 32 88.8
20260506173012 46 90 1.7 1.7 0.00 0.00 0.00 31 88.8
20260506172012 46 90 2.6 2.6 0.00 0.00 0.00 33 88.8
20260506171011 46 22 7.0 7.0 0.00 0.00 0.00 33 88.8
20260506170012 46 22 5.2 5.2 0.00 0.00 0.00 33 88.8
20260506165012 45 0 9.6 9.6 0.00 0.00 0.00 33 88.8
20260506164012 45 45 0.0 0.0 0.00 0.00 0.00 34 88.8
20260506163011 45 315 6.1 6.1 0.00 0.00 0.00 34 88.8
20260506162012 45 22 4.3 4.3 0.00 0.00 0.00 34 88.8
20260506161012 45 292 4.3 4.3 0.00 0.00 0.00 34 88.8
20260506160011 46 338 5.2 5.2 0.00 0.00 0.00 35 88.8
20260506155012 46 292 5.2 5.2 0.00 0.00 0.00 35 88.8
20260506154012 47 22 7.8 7.8 0.00 0.00 0.00 35 88.8
20260506153012 47 270 6.1 6.1 0.00 0.00 0.00 36 88.8
20260506152012 49 292 7.8 7.8 0.00 0.00 0.00 36 88.8
20260506151012 50 22 7.0 7.0 0.00 0.00 0.00 36 88.8
20260506150011 50 270 6.1 6.1 0.00 0.00 0.00 37 88.8
20260506145012 49 270 6.1 6.1 0.00 0.00 0.00 37 88.8
20260506144011 49 270 7.8 7.8 0.00 0.00 0.00 37 88.8
20260506143011 49 270 7.0 7.0 0.00 0.00 0.00 38 88.8
20260506142012 49 270 4.3 4.3 0.00 0.00 0.00 40 88.8
20260506141012 47 270 5.2 5.2 0.00 0.00 0.00 42 88.8
20260506140017 46 225 2.6 2.6 0.00 0.00 0.00 45 88.8
20260506135012 44 248 1.7 1.7 0.00 0.00 0.00 45 88.8
20260506134011 43 270 6.1 6.1 0.00 0.00 0.00 46 88.8
20260506133012 40 270 2.6 2.6 0.00 0.00 0.00 47 88.8
20260506132011 36 248 2.6 2.6 0.00 0.00 0.00 47 88.8
20260506125011 21 90 0.0 0.0 0.00 0.00 0.00 61 88.8
20260506124012 19 135 0.0 0.0 0.00 0.00 0.00 63 88.8
20260506123011 18 112 0.0 0.0 0.00 0.00 0.00 62 88.8
20260506122011 16 225 0.0 0.0 0.00 0.00 0.00 61 88.8
20260506121012 15 248 0.0 0.0 0.00 0.00 0.00 63 88.8
20260506120011 14 270 0.0 0.0 0.00 0.00 0.00 66 88.8
20260506115011 14 248 1.7 1.7 0.00 0.00 0.00 68 88.8
20260506114012 13 248 0.9 0.9 0.00 0.00 0.00 72 88.8
20260506113011 14 112 0.0 0.0 0.00 0.00 0.00 71 88.8
20260506112011 14 202 0.0 0.0 0.00 0.00 0.00 69 88.8
20260506111012 14 112 0.0 0.0 0.00 0.00 0.00 69 88.8
20260506110012 14 135 0.0 0.0 0.00 0.00 0.00 66 88.8
20260506105012 14 225 0.0 0.0 0.00 0.00 0.00 66 88.8
20260506104012 14 338 0.0 0.0 0.00 0.00 0.00 68 88.8
20260506103011 14 68 0.0 0.0 0.00 0.00 0.00 69 88.8
20260506102012 13 225 1.7 1.7 0.00 0.00 0.00 71 88.8
20260506101012 13 180 1.7 1.7 0.00 0.00 0.00 75 88.8
20260506100012 13 292 0.0 0.0 0.00 0.00 0.00 71 88.8
20260506095012 13 292 0.0 0.0 0.00 0.00 0.00 69 88.8
20260506094012 13 292 0.0 0.0 0.00 0.00 0.00 69 88.8
20260506093011 13 292 2.6 2.6 0.00 0.00 0.00 70 88.8
20260506092011 13 270 0.0 0.0 0.00 0.00 0.00 72 88.8
20260506091011 13 315 0.0 0.0 0.00 0.00 0.00 71 88.8
20260506085011 14 0 0.0 0.0 0.00 0.00 0.00 70 88.8
20260506084013 14 270 0.0 0.0 0.00 0.00 0.00 71 88.8
20260506083012 14 270 0.0 0.0 0.00 0.00 0.00 72 88.8
20260506082012 14 0 0.0 0.0 0.00 0.00 0.00 73 88.8
20260506081011 15 338 0.0 0.0 0.00 0.00 0.00 72 88.8
20260506073011 16 292 0.0 0.0 0.00 0.00 0.00 72 88.8
20260506072012 16 270 0.0 0.0 0.00 0.00 0.00 69 88.8
20260506071011 16 45 0.0 0.0 0.00 0.00 0.00 67 88.8
20260506062012 18 338 0.0 0.0 0.00 0.00 0.00 59 88.8
20260506061013 18 338 2.6 2.6 0.00 0.00 0.00 59 88.8
20260506051012 21 338 2.6 2.6 0.00 0.00 0.00 54 88.8
20260506045012 24 0 0.0 0.0 0.00 0.00 0.00 53 88.8
20260506043013 27 315 3.5 3.5 0.00 0.00 0.00 50 88.8
20260506042012 28 338 3.5 3.5 0.00 0.00 0.00 50 88.8
20260506041012 28 338 3.5 3.5 0.00 0.00 0.00 50 88.8
20260506040012 28 338 3.5 3.5 0.00 0.00 0.00 50 88.8
20260506035012 28 338 3.5 3.5 0.00 0.00 0.00 50 88.8
20260506034011 28 338 3.5 3.5 0.00 0.00 0.00 49 88.8
20260506033011 29 338 3.5 3.5 0.00 0.00 0.00 48 88.8
20260506032011 30 338 3.5 3.5 0.00 0.00 0.00 47 88.8
20260506031012 32 22 4.3 4.3 0.00 0.00 0.00 45 88.8
20260506030012 33 22 4.3 4.3 0.00 0.00 0.00 43 88.8
20260506025012 35 22 5.2 5.2 0.00 0.00 0.00 42 88.8
20260506024012 36 22 6.1 6.1 0.00 0.00 0.00 41 88.8
20260506023013 36 22 7.0 7.0 0.00 0.00 0.00 40 88.8
20260506022011 38 22 7.8 7.8 0.00 0.00 0.00 39 88.8
20260506021012 39 22 7.8 7.8 0.00 0.00 0.00 37 88.8
20260506020012 40 22 7.8 7.8 0.00 0.00 0.00 36 88.8
20260506015012 41 22 7.8 7.8 0.00 0.00 0.00 36 88.8
20260506014012 42 22 10.4 10.4 0.00 0.00 0.00 35 88.8
20260506012011 44 22 12.2 12.2 0.00 0.00 0.00 36 88.8
20260506011011 44 0 13.9 13.9 0.00 0.00 0.00 35 88.8
20260506010012 45 22 14.8 14.8 0.00 0.00 0.00 36 88.8
20260506005011 46 22 12.2 12.2 0.00 0.00 0.00 34 88.8
20260506004011 46 338 14.8 14.8 0.00 0.00 0.00 33 88.8
20260506003012 46 22 19.1 19.1 0.00 0.00 0.00 33 88.8
20260506002011 46 22 14.8 14.8 0.00 0.00 0.00 32 88.8
20260506001012 45 22 13.0 13.0 0.00 0.00 0.00 32 88.8
20260506000012 44 0 10.4 10.4 0.00 0.00 0.00 32 88.8
20260505235012 44 22 10.4 10.4 0.00 0.00 0.00 32 88.8
20260505234011 44 22 12.2 12.2 0.00 0.00 0.00 32 88.8
20260505233012 44 22 13.9 13.9 0.00 0.00 0.00 31 88.8
20260505232012 44 22 12.2 12.2 0.00 0.00 0.00 30 88.8
20260505231011 44 22 16.5 16.5 0.00 0.00 0.00 32 88.8
20260505230012 44 22 14.8 14.8 0.00 0.00 0.00 33 88.8
20260505225012 44 22 18.2 18.2 0.00 0.00 0.00 33 88.8
20260505224012 44 22 16.5 16.5 0.00 0.00 0.00 34 88.8
20260505223012 44 22 19.1 19.1 0.00 0.00 0.00 33 88.8